Time,TemperatureF,DewpointF,PressureIn,WindDirection,WindDirectionDegrees,WindSpeedMPH,WindSpeedGustMPH,Humidity,HourlyPrecipIn,Conditions,Clouds,dailyrainin,SoftwareType,DateUTC
2013-04-26 00:00:00,58.7,56.7,30.21,East,86,0.0,0.0,93,0.00,,,0.30,Wunderground v.1.15,2013-04-26 04:00:00,
2013-04-26 00:05:00,58.5,56.5,30.21,East,86,0.0,0.0,93,0.00,,,0.00,Wunderground v.1.15,2013-04-26 04:05:00,
2013-04-26 00:10:00,58.3,56.3,30.21,East,86,0.0,0.0,93,0.00,,,0.00,Wunderground v.1.15,2013-04-26 04:10:00,
2013-04-26 00:20:00,58.0,56.0,30.21,East,86,0.0,0.0,93,0.00,,,0.00,Wunderground v.1.15,2013-04-26 04:20:00,
2013-04-26 00:25:00,57.7,55.7,30.21,East,86,0.0,0.0,93,0.00,,,0.00,Wunderground v.1.15,2013-04-26 04:25:00,
2013-04-26 00:35:00,57.3,55.6,30.21,East,86,0.0,0.0,94,0.00,,,0.00,Wunderground v.1.15,2013-04-26 04:35:00,
2013-04-26 00:45:00,56.9,54.9,30.21,East,86,0.0,0.0,93,0.00,,,0.00,Wunderground v.1.15,2013-04-26 04:45:00,
2013-04-26 00:55:00,56.5,54.5,30.21,East,86,0.0,0.0,93,0.00,,,0.00,Wunderground v.1.15,2013-04-26 04:55:00,
2013-04-26 01:00:00,56.3,54.6,30.21,East,86,0.0,0.0,94,0.00,,,0.00,Wunderground v.1.15,2013-04-26 05:00:00,
2013-04-26 01:10:00,55.9,54.2,30.21,East,86,0.0,0.0,94,0.00,,,0.00,Wunderground v.1.15,2013-04-26 05:10:00,
2013-04-26 01:15:00,55.7,54.0,30.21,East,86,0.0,0.0,94,0.00,,,0.00,Wunderground v.1.15,2013-04-26 05:15:00,
2013-04-26 01:25:00,55.4,53.7,30.21,East,86,0.0,0.0,94,0.00,,,0.00,Wunderground v.1.15,2013-04-26 05:25:00,
2013-04-26 01:35:00,55.1,53.4,30.20,East,86,0.0,0.0,94,0.00,,,0.00,Wunderground v.1.15,2013-04-26 05:35:00,
2013-04-26 01:40:00,55.0,53.6,30.20,East,86,0.0,0.0,95,0.00,,,0.00,Wunderground v.1.15,2013-04-26 05:40:00,
2013-04-26 01:50:00,54.7,53.0,30.20,East,86,0.0,0.0,94,0.00,,,0.00,Wunderground v.1.15,2013-04-26 05:50:00,
2013-04-26 01:55:00,54.6,53.2,30.20,East,86,0.0,0.0,95,0.00,,,0.00,Wunderground v.1.15,2013-04-26 05:55:00,
2013-04-26 02:05:00,54.3,52.9,30.20,East,86,0.0,0.0,95,0.00,,,0.00,Wunderground v.1.15,2013-04-26 06:05:00,
2013-04-26 02:10:00,54.2,52.8,30.21,East,86,0.0,0.0,95,0.00,,,0.00,Wunderground v.1.15,2013-04-26 06:10:00,
2013-04-26 02:20:00,54.2,53.1,30.21,East,86,0.0,0.0,96,0.00,,,0.00,Wunderground v.1.15,2013-04-26 06:20:00,
2013-04-26 02:30:00,54.1,53.0,30.22,East,86,0.0,0.0,96,0.00,,,0.00,Wunderground v.1.15,2013-04-26 06:30:00,
2013-04-26 02:40:00,53.9,52.8,30.21,East,86,0.0,0.0,96,0.00,,,0.00,Wunderground v.1.15,2013-04-26 06:40:00,
2013-04-26 02:50:00,53.7,52.6,30.22,East,86,0.0,0.0,96,0.00,,,0.00,Wunderground v.1.15,2013-04-26 06:50:00,
2013-04-26 03:00:00,53.5,52.4,30.22,East,86,0.0,0.0,96,0.00,,,0.00,Wunderground v.1.15,2013-04-26 07:00:00,
2013-04-26 03:05:00,53.4,52.3,30.21,East,86,0.0,0.0,96,0.00,,,0.00,Wunderground v.1.15,2013-04-26 07:05:00,
2013-04-26 03:15:00,53.2,52.1,30.21,East,86,0.0,0.0,96,0.00,,,0.00,Wunderground v.1.15,2013-04-26 07:15:00,
2013-04-26 03:25:00,53.0,51.9,30.22,East,86,0.0,0.0,96,0.00,,,0.00,Wunderground v.1.15,2013-04-26 07:25:00,
2013-04-26 03:30:00,52.9,51.8,30.22,East,86,0.0,0.0,96,0.00,,,0.00,Wunderground v.1.15,2013-04-26 07:30:00,
2013-04-26 03:40:00,52.7,51.6,30.22,East,86,0.0,1.0,96,0.00,,,0.00,Wunderground v.1.15,2013-04-26 07:40:00,
2013-04-26 03:45:00,52.7,51.6,30.22,East,86,0.0,1.0,96,0.00,,,0.00,Wunderground v.1.15,2013-04-26 07:45:00,
2013-04-26 03:55:00,52.6,51.5,30.22,East,86,0.0,1.0,96,0.00,,,0.00,Wunderground v.1.15,2013-04-26 07:55:00,
2013-04-26 04:05:00,52.4,51.3,30.22,East,86,0.0,0.0,96,0.00,,,0.00,Wunderground v.1.15,2013-04-26 08:05:00,
2013-04-26 04:15:00,52.3,51.2,30.22,East,86,0.0,0.0,96,0.00,,,0.00,Wunderground v.1.15,2013-04-26 08:15:00,
2013-04-26 04:20:00,52.3,51.2,30.22,East,86,0.0,0.0,96,0.00,,,0.00,Wunderground v.1.15,2013-04-26 08:20:00,
2013-04-26 04:30:00,52.1,51.0,30.22,East,86,0.0,0.0,96,0.00,,,0.00,Wunderground v.1.15,2013-04-26 08:30:00,
2013-04-26 04:40:00,52.0,50.9,30.22,East,86,0.0,0.0,96,0.00,,,0.00,Wunderground v.1.15,2013-04-26 08:40:00,
2013-04-26 04:45:00,51.9,50.8,30.22,East,86,0.0,0.0,96,0.00,,,0.00,Wunderground v.1.15,2013-04-26 08:45:00,
2013-04-26 04:55:00,51.8,50.7,30.23,East,86,0.0,0.0,96,0.00,,,0.00,Wunderground v.1.15,2013-04-26 08:55:00,
2013-04-26 05:05:00,51.7,50.6,30.23,East,86,0.0,0.0,96,0.00,,,0.00,Wunderground v.1.15,2013-04-26 09:05:00,
2013-04-26 05:10:00,51.6,50.5,30.23,East,86,0.0,0.0,96,0.00,,,0.00,Wunderground v.1.15,2013-04-26 09:10:00,
2013-04-26 05:20:00,51.4,50.3,30.24,East,86,0.0,0.0,96,0.00,,,0.00,Wunderground v.1.15,2013-04-26 09:20:00,
2013-04-26 05:30:00,51.1,50.0,30.24,East,86,0.0,0.0,96,0.00,,,0.00,Wunderground v.1.15,2013-04-26 09:30:00,
2013-04-26 05:40:00,50.8,49.7,30.24,East,86,0.0,0.0,96,0.00,,,0.00,Wunderground v.1.15,2013-04-26 09:40:00,
2013-04-26 05:45:00,50.7,49.6,30.24,East,86,0.0,0.0,96,0.00,,,0.00,Wunderground v.1.15,2013-04-26 09:45:00,
2013-04-26 05:55:00,50.7,49.6,30.24,East,86,0.0,0.0,96,0.00,,,0.00,Wunderground v.1.15,2013-04-26 09:55:00,
2013-04-26 06:00:00,50.6,49.5,30.24,East,86,0.0,0.0,96,0.00,,,0.00,Wunderground v.1.15,2013-04-26 10:00:00,
2013-04-26 06:10:00,50.5,49.4,30.25,East,86,0.0,0.0,96,0.00,,,0.00,Wunderground v.1.15,2013-04-26 10:10:00,
2013-04-26 06:20:00,50.3,49.2,30.25,East,86,0.0,0.0,96,0.00,,,0.00,Wunderground v.1.15,2013-04-26 10:20:00,
2013-04-26 06:25:00,50.1,49.0,30.25,East,86,0.0,0.0,96,0.00,,,0.00,Wunderground v.1.15,2013-04-26 10:25:00,
2013-04-26 06:35:00,50.0,48.9,30.25,East,86,0.0,0.0,96,0.00,,,0.00,Wunderground v.1.15,2013-04-26 10:35:00,
2013-04-26 06:40:00,49.9,48.8,30.26,East,86,0.0,0.0,96,0.00,,,0.00,Wunderground v.1.15,2013-04-26 10:40:00,
2013-04-26 06:50:00,49.7,48.6,30.26,East,86,0.0,0.0,96,0.00,,,0.00,Wunderground v.1.15,2013-04-26 10:50:00,
2013-04-26 06:55:00,49.7,48.6,30.26,East,86,0.0,0.0,96,0.00,,,0.00,Wunderground v.1.15,2013-04-26 10:55:00,
2013-04-26 07:00:00,49.7,48.6,30.26,East,86,0.0,0.0,96,0.00,,,0.00,Wunderground v.1.15,2013-04-26 11:00:00,
2013-04-26 07:05:00,49.7,48.6,30.27,East,86,0.0,0.0,96,0.00,,,0.00,Wunderground v.1.15,2013-04-26 11:05:00,
2013-04-26 07:15:00,49.8,48.7,30.27,East,86,0.0,0.0,96,0.00,,,0.00,Wunderground v.1.15,2013-04-26 11:15:00,
2013-04-26 07:20:00,49.9,49.1,30.28,East,86,0.0,0.0,97,0.00,,,0.00,Wunderground v.1.15,2013-04-26 11:20:00,
2013-04-26 07:30:00,50.5,49.7,30.29,East,86,0.0,0.0,97,0.00,,,0.00,Wunderground v.1.15,2013-04-26 11:30:00,
2013-04-26 07:35:00,50.9,50.1,30.29,East,86,0.0,1.0,97,0.00,,,0.00,Wunderground v.1.15,2013-04-26 11:35:00,
2013-04-26 07:45:00,51.9,51.1,30.29,East,86,0.0,0.0,97,0.00,,,0.00,Wunderground v.1.15,2013-04-26 11:45:00,
2013-04-26 07:55:00,52.6,51.5,30.30,East,86,0.0,0.0,96,0.00,,,0.00,Wunderground v.1.15,2013-04-26 11:55:00,
2013-04-26 08:00:00,53.2,52.1,30.30,East,86,0.0,0.0,96,0.00,,,0.00,Wunderground v.1.15,2013-04-26 12:00:00,
2013-04-26 08:10:00,54.7,52.7,30.31,East,86,0.0,1.0,93,0.00,,,0.00,Wunderground v.1.15,2013-04-26 12:10:00,
2013-04-26 08:15:00,55.4,52.8,30.31,East,84,0.0,1.0,91,0.00,,,0.00,Wunderground v.1.15,2013-04-26 12:15:00,
2013-04-26 08:25:00,56.6,53.1,30.31,ENE,66,0.0,0.0,88,0.00,,,0.00,Wunderground v.1.15,2013-04-26 12:25:00,
2013-04-26 08:30:00,57.2,53.4,30.31,ENE,75,1.0,1.0,87,0.00,,,0.00,Wunderground v.1.15,2013-04-26 12:30:00,
2013-04-26 08:40:00,58.5,54.0,30.32,East,90,1.0,1.0,85,0.00,,,0.00,Wunderground v.1.15,2013-04-26 12:40:00,
2013-04-26 08:50:00,59.8,54.6,30.32,East,89,0.0,0.0,83,0.00,,,0.00,Wunderground v.1.15,2013-04-26 12:50:00,
2013-04-26 09:00:00,61.0,54.8,30.32,ENE,76,0.0,1.0,80,0.00,,,0.00,Wunderground v.1.15,2013-04-26 13:00:00,
2013-04-26 09:05:00,61.4,54.1,30.33,ESE,115,1.0,3.0,77,0.00,,,0.00,Wunderground v.1.15,2013-04-26 13:05:00,
2013-04-26 09:15:00,61.7,54.1,30.33,ENE,69,2.0,2.0,76,0.00,,,0.00,Wunderground v.1.15,2013-04-26 13:15:00,
2013-04-26 09:25:00,62.4,54.7,30.33,East,84,1.0,2.0,76,0.00,,,0.00,Wunderground v.1.15,2013-04-26 13:25:00,
2013-04-26 09:35:00,63.7,55.6,30.33,East,84,1.0,1.0,75,0.00,,,0.00,Wunderground v.1.15,2013-04-26 13:35:00,
2013-04-26 09:45:00,64.5,54.5,30.34,East,80,1.0,2.0,70,0.00,,,0.00,Wunderground v.1.15,2013-04-26 13:45:00,
2013-04-26 09:55:00,64.7,53.9,30.34,East,101,2.0,2.0,68,0.00,,,0.00,Wunderground v.1.15,2013-04-26 13:55:00,
2013-04-26 10:00:00,65.1,53.9,30.34,East,79,2.0,2.0,67,0.00,,,0.00,Wunderground v.1.15,2013-04-26 14:00:00,
2013-04-26 10:10:00,65.3,53.2,30.35,NNE,27,2.0,2.0,65,0.00,,,0.00,Wunderground v.1.15,2013-04-26 14:10:00,
2013-04-26 10:20:00,65.6,52.2,30.35,East,85,2.0,5.0,62,0.00,,,0.00,Wunderground v.1.15,2013-04-26 14:20:00,
2013-04-26 10:25:00,65.6,52.2,30.35,East,90,3.0,5.0,62,0.00,,,0.00,Wunderground v.1.15,2013-04-26 14:25:00,
2013-04-26 10:35:00,65.8,53.7,30.35,East,99,3.0,8.0,65,0.00,,,0.00,Wunderground v.1.15,2013-04-26 14:35:00,
2013-04-26 10:45:00,66.5,53.5,30.36,ENE,71,3.0,6.0,63,0.00,,,0.00,Wunderground v.1.15,2013-04-26 14:45:00,
2013-04-26 10:50:00,66.9,53.0,30.36,ENE,71,2.0,2.0,61,0.00,,,0.00,Wunderground v.1.15,2013-04-26 14:50:00,
2013-04-26 11:00:00,67.5,52.7,30.36,ENE,65,2.0,2.0,59,0.00,,,0.00,Wunderground v.1.15,2013-04-26 15:00:00,
2013-04-26 11:10:00,67.7,53.3,30.36,ENE,74,3.0,3.0,60,0.00,,,0.00,Wunderground v.1.15,2013-04-26 15:10:00,
2013-04-26 11:15:00,67.7,53.8,30.36,East,84,2.0,3.0,61,0.00,,,0.00,Wunderground v.1.15,2013-04-26 15:15:00,
2013-04-26 11:25:00,67.6,55.0,30.36,SE,143,3.0,6.0,64,0.00,,,0.00,Wunderground v.1.15,2013-04-26 15:25:00,
2013-04-26 11:30:00,68.1,55.0,30.36,ENE,65,3.0,3.0,63,0.00,,,0.00,Wunderground v.1.15,2013-04-26 15:30:00,
2013-04-26 11:40:00,67.8,55.2,30.36,ESE,118,3.0,4.0,64,0.00,,,0.00,Wunderground v.1.15,2013-04-26 15:40:00,
2013-04-26 11:50:00,68.3,54.8,30.36,ENE,75,2.0,2.0,62,0.00,,,0.00,Wunderground v.1.15,2013-04-26 15:50:00,
2013-04-26 12:00:00,68.5,54.5,30.36,ESE,118,3.0,4.0,61,0.00,,,0.00,Wunderground v.1.15,2013-04-26 16:00:00,
2013-04-26 12:05:00,68.7,54.7,30.35,East,86,3.0,4.0,61,0.00,,,0.00,Wunderground v.1.15,2013-04-26 16:05:00,
2013-04-26 12:15:00,69.2,55.2,30.35,East,81,3.0,3.0,61,0.00,,,0.00,Wunderground v.1.15,2013-04-26 16:15:00,
2013-04-26 12:20:00,69.2,53.8,30.35,East,91,3.0,3.0,58,0.00,,,0.00,Wunderground v.1.15,2013-04-26 16:20:00,
2013-04-26 12:30:00,69.8,52.9,30.35,East,97,2.0,3.0,55,0.00,,,0.00,Wunderground v.1.15,2013-04-26 16:30:00,
2013-04-26 12:35:00,69.9,53.5,30.35,East,88,2.0,3.0,56,0.00,,,0.00,Wunderground v.1.15,2013-04-26 16:35:00,
2013-04-26 12:45:00,69.7,53.3,30.34,ENE,71,3.0,4.0,56,0.00,,,0.00,Wunderground v.1.15,2013-04-26 16:45:00,
2013-04-26 12:55:00,70.1,53.7,30.33,NE,43,3.0,3.0,56,0.00,,,0.00,Wunderground v.1.15,2013-04-26 16:55:00,
2013-04-26 13:00:00,70.4,54.0,30.33,East,86,3.0,3.0,56,0.00,,,0.00,Wunderground v.1.15,2013-04-26 17:00:00,
2013-04-26 13:10:00,70.3,53.9,30.33,ENE,65,3.0,7.0,56,0.00,,,0.00,Wunderground v.1.15,2013-04-26 17:10:00,
2013-04-26 13:15:00,70.0,53.1,30.32,ESE,122,3.0,7.0,55,0.00,,,0.00,Wunderground v.1.15,2013-04-26 17:15:00,
2013-04-26 13:25:00,69.7,52.3,30.33,ENE,74,4.0,4.0,54,0.00,,,0.00,Wunderground v.1.15,2013-04-26 17:25:00,
2013-04-26 13:30:00,69.8,53.4,30.32,ENE,61,4.0,4.0,56,0.00,,,0.00,Wunderground v.1.15,2013-04-26 17:30:00,
2013-04-26 13:40:00,70.1,49.5,30.32,East,80,3.0,3.0,48,0.00,,,0.00,Wunderground v.1.15,2013-04-26 17:40:00,
2013-04-26 13:45:00,70.1,50.0,30.33,ENE,65,4.0,4.0,49,0.00,,,0.00,Wunderground v.1.15,2013-04-26 17:45:00,
2013-04-26 13:55:00,70.6,51.1,30.33,ENE,78,3.0,4.0,50,0.00,,,0.00,Wunderground v.1.15,2013-04-26 17:55:00,
2013-04-26 14:05:00,70.1,51.7,30.33,NE,48,4.0,5.0,52,0.00,,,0.00,Wunderground v.1.15,2013-04-26 18:05:00,
2013-04-26 14:15:00,69.9,50.9,30.33,NE,42,4.0,4.0,51,0.00,,,0.00,Wunderground v.1.15,2013-04-26 18:15:00,
2013-04-26 14:25:00,70.1,51.1,30.33,ENE,61,3.0,4.0,51,0.00,,,0.00,Wunderground v.1.15,2013-04-26 18:25:00,
2013-04-26 14:30:00,70.2,51.2,30.33,SE,125,3.0,3.0,51,0.00,,,0.00,Wunderground v.1.15,2013-04-26 18:30:00,
2013-04-26 14:40:00,70.6,50.0,30.33,ENE,77,3.0,3.0,48,0.00,,,0.00,Wunderground v.1.15,2013-04-26 18:40:00,
2013-04-26 14:45:00,70.8,50.1,30.33,ENE,63,2.0,4.0,48,0.00,,,0.00,Wunderground v.1.15,2013-04-26 18:45:00,
2013-04-26 14:55:00,70.6,48.8,30.33,East,81,3.0,6.0,46,0.00,,,0.00,Wunderground v.1.15,2013-04-26 18:55:00,
2013-04-26 15:05:00,70.8,46.6,30.32,East,101,4.0,4.0,42,0.00,,,0.00,Wunderground v.1.15,2013-04-26 19:05:00,
2013-04-26 15:10:00,70.9,45.4,30.32,ENE,67,3.0,3.0,40,0.00,,,0.00,Wunderground v.1.15,2013-04-26 19:10:00,
2013-04-26 15:20:00,71.3,45.1,30.32,SE,136,3.0,6.0,39,0.00,,,0.00,Wunderground v.1.15,2013-04-26 19:20:00,
2013-04-26 15:25:00,71.3,45.7,30.32,NE,53,4.0,6.0,40,0.00,,,0.00,Wunderground v.1.15,2013-04-26 19:25:00,
2013-04-26 15:35:00,70.5,46.3,30.31,East,96,5.0,5.0,42,0.00,,,0.00,Wunderground v.1.15,2013-04-26 19:35:00,
2013-04-26 15:45:00,70.6,47.6,30.31,East,81,4.0,4.0,44,0.00,,,0.00,Wunderground v.1.15,2013-04-26 19:45:00,
2013-04-26 15:55:00,71.0,44.1,30.30,NE,55,3.0,4.0,38,0.00,,,0.00,Wunderground v.1.15,2013-04-26 19:55:00,
2013-04-26 16:00:00,71.3,45.1,30.30,SE,125,3.0,9.0,39,0.00,,,0.00,Wunderground v.1.15,2013-04-26 20:00:00,
2013-04-26 16:10:00,71.2,45.0,30.30,SE,130,4.0,5.0,39,0.00,,,0.00,Wunderground v.1.15,2013-04-26 20:10:00,
2013-04-26 16:15:00,70.7,44.5,30.30,East,93,4.0,5.0,39,0.00,,,0.00,Wunderground v.1.15,2013-04-26 20:15:00,
2013-04-26 16:25:00,69.9,43.8,30.30,SE,127,4.0,6.0,39,0.00,,,0.00,Wunderground v.1.15,2013-04-26 20:25:00,
2013-04-26 16:35:00,69.8,45.0,30.30,ENE,71,4.0,5.0,41,0.00,,,0.00,Wunderground v.1.15,2013-04-26 20:35:00,
2013-04-26 16:40:00,69.4,44.7,30.29,SE,124,5.0,5.0,41,0.00,,,0.00,Wunderground v.1.15,2013-04-26 20:40:00,
2013-04-26 16:50:00,69.7,45.6,30.29,ENE,63,3.0,3.0,42,0.00,,,0.00,Wunderground v.1.15,2013-04-26 20:50:00,
2013-04-26 16:55:00,69.5,46.0,30.29,ENE,77,4.0,4.0,43,0.00,,,0.00,Wunderground v.1.15,2013-04-26 20:55:00,
2013-04-26 17:05:00,68.8,44.8,30.29,East,80,4.0,6.0,42,0.00,,,0.00,Wunderground v.1.15,2013-04-26 21:05:00,
2013-04-26 17:15:00,68.5,45.7,30.30,ENE,63,4.0,4.0,44,0.00,,,0.00,Wunderground v.1.15,2013-04-26 21:15:00,
2013-04-26 17:20:00,68.5,47.5,30.29,ENE,77,3.0,3.0,47,0.00,,,0.00,Wunderground v.1.15,2013-04-26 21:20:00,
2013-04-26 17:30:00,67.9,44.6,30.29,East,80,4.0,4.0,43,0.00,,,0.00,Wunderground v.1.15,2013-04-26 21:30:00,
2013-04-26 17:35:00,67.9,44.6,30.29,East,86,4.0,7.0,43,0.00,,,0.00,Wunderground v.1.15,2013-04-26 21:35:00,
2013-04-26 17:45:00,67.6,46.1,30.29,SE,125,4.0,4.0,46,0.00,,,0.00,Wunderground v.1.15,2013-04-26 21:45:00,
2013-04-26 17:50:00,67.5,44.8,30.29,East,84,4.0,5.0,44,0.00,,,0.00,Wunderground v.1.15,2013-04-26 21:50:00,
2013-04-26 18:00:00,67.2,46.3,30.29,NE,48,3.0,4.0,47,0.00,,,0.00,Wunderground v.1.15,2013-04-26 22:00:00,
2013-04-26 18:10:00,66.6,45.7,30.29,ENE,74,4.0,4.0,47,0.00,,,0.00,Wunderground v.1.15,2013-04-26 22:10:00,
2013-04-26 18:15:00,66.6,44.6,30.29,NE,45,3.0,4.0,45,0.00,,,0.00,Wunderground v.1.15,2013-04-26 22:15:00,
2013-04-26 18:25:00,66.1,43.5,30.29,East,80,3.0,4.0,44,0.00,,,0.00,Wunderground v.1.15,2013-04-26 22:25:00,
2013-04-26 18:30:00,66.0,43.5,30.29,East,88,3.0,3.0,44,0.00,,,0.00,Wunderground v.1.15,2013-04-26 22:30:00,
2013-04-26 18:40:00,65.7,44.9,30.29,ENE,63,3.0,3.0,47,0.00,,,0.00,Wunderground v.1.15,2013-04-26 22:40:00,
2013-04-26 18:50:00,65.4,45.2,30.29,ENE,66,2.0,2.0,48,0.00,,,0.00,Wunderground v.1.15,2013-04-26 22:50:00,
2013-04-26 18:55:00,65.2,44.5,30.29,ENE,67,2.0,3.0,47,0.00,,,0.00,Wunderground v.1.15,2013-04-26 22:55:00,
2013-04-26 19:00:00,65.1,46.0,30.30,ENE,65,2.0,2.0,50,0.00,,,0.00,Wunderground v.1.15,2013-04-26 23:00:00,
2013-04-26 19:05:00,64.8,47.3,30.29,ENE,66,2.0,2.0,53,0.00,,,0.00,Wunderground v.1.15,2013-04-26 23:05:00,
2013-04-26 19:15:00,64.4,47.9,30.29,ENE,70,1.0,4.0,55,0.00,,,0.00,Wunderground v.1.15,2013-04-26 23:15:00,
2013-04-26 19:20:00,64.0,48.5,30.29,East,86,1.0,3.0,57,0.00,,,0.00,Wunderground v.1.15,2013-04-26 23:20:00,
2013-04-26 19:30:00,63.2,49.1,30.30,ENE,59,2.0,2.0,60,0.00,,,0.00,Wunderground v.1.15,2013-04-26 23:30:00,
2013-04-26 19:35:00,62.8,48.7,30.30,ENE,65,1.0,2.0,60,0.00,,,0.00,Wunderground v.1.15,2013-04-26 23:35:00,
2013-04-26 19:45:00,62.3,49.1,30.31,ENE,65,0.0,1.0,62,0.00,,,0.00,Wunderground v.1.15,2013-04-26 23:45:00,
2013-04-26 19:50:00,62.0,48.8,30.31,ENE,65,0.0,1.0,62,0.00,,,0.00,Wunderground v.1.15,2013-04-26 23:50:00,
2013-04-26 20:10:00,61.0,49.1,30.31,ENE,65,0.0,0.0,65,0.00,,,0.00,Wunderground v.1.15,2013-04-27 00:10:00,
2013-04-26 20:20:00,60.4,49.0,30.31,ENE,65,0.0,0.0,66,0.00,,,0.00,Wunderground v.1.15,2013-04-27 00:20:00,
2013-04-26 20:30:00,59.9,48.9,30.32,ENE,65,0.0,0.0,67,0.00,,,0.00,Wunderground v.1.15,2013-04-27 00:30:00,
2013-04-26 20:40:00,59.5,49.3,30.32,ENE,65,0.0,0.0,69,0.00,,,0.00,Wunderground v.1.15,2013-04-27 00:40:00,
2013-04-26 20:45:00,59.3,49.9,30.33,ENE,65,0.0,0.0,71,0.00,,,0.00,Wunderground v.1.15,2013-04-27 00:45:00,
2013-04-26 20:55:00,58.8,50.2,30.33,ENE,65,0.0,0.0,73,0.00,,,0.00,Wunderground v.1.15,2013-04-27 00:55:00,
2013-04-26 21:00:00,58.5,50.2,30.33,ENE,65,0.0,0.0,74,0.00,,,0.00,Wunderground v.1.15,2013-04-27 01:00:00,
2013-04-26 21:10:00,58.0,50.8,30.33,ENE,65,0.0,0.0,77,0.00,,,0.00,Wunderground v.1.15,2013-04-27 01:10:00,
2013-04-26 21:15:00,57.8,50.6,30.33,ENE,65,0.0,0.0,77,0.00,,,0.00,Wunderground v.1.15,2013-04-27 01:15:00,
2013-04-26 21:25:00,57.3,50.8,30.33,ENE,65,0.0,0.0,79,0.00,,,0.00,Wunderground v.1.15,2013-04-27 01:25:00,
2013-04-26 21:30:00,57.1,51.0,30.34,ENE,65,0.0,0.0,80,0.00,,,0.00,Wunderground v.1.15,2013-04-27 01:30:00,
2013-04-26 21:40:00,56.7,50.9,30.33,ENE,65,0.0,0.0,81,0.00,,,0.00,Wunderground v.1.15,2013-04-27 01:40:00,
2013-04-26 21:50:00,56.3,50.9,30.33,ENE,65,0.0,0.0,82,0.00,,,0.00,Wunderground v.1.15,2013-04-27 01:50:00,
2013-04-26 22:00:00,56.3,51.2,30.32,ENE,65,1.0,1.0,83,0.00,,,0.00,Wunderground v.1.15,2013-04-27 02:00:00,
2013-04-26 22:05:00,56.4,51.3,30.32,ENE,65,1.0,1.0,83,0.00,,,0.00,Wunderground v.1.15,2013-04-27 02:05:00,
2013-04-26 22:15:00,56.3,51.8,30.33,ENE,65,0.0,0.0,85,0.00,,,0.00,Wunderground v.1.15,2013-04-27 02:15:00,
2013-04-26 22:25:00,55.9,51.8,30.33,ENE,65,0.0,0.0,86,0.00,,,0.00,Wunderground v.1.15,2013-04-27 02:25:00,
2013-04-26 22:30:00,55.7,51.9,30.34,ENE,65,0.0,0.0,87,0.00,,,0.00,Wunderground v.1.15,2013-04-27 02:30:00,
2013-04-26 22:40:00,55.5,51.7,30.34,ENE,65,0.0,0.0,87,0.00,,,0.00,Wunderground v.1.15,2013-04-27 02:40:00,
2013-04-26 22:45:00,55.3,51.5,30.34,ENE,65,0.0,0.0,87,0.00,,,0.00,Wunderground v.1.15,2013-04-27 02:45:00,
2013-04-26 22:55:00,55.0,51.5,30.33,ENE,65,0.0,0.0,88,0.00,,,0.00,Wunderground v.1.15,2013-04-27 02:55:00,
2013-04-26 23:05:00,54.6,51.1,30.33,ENE,65,0.0,0.0,88,0.00,,,0.00,Wunderground v.1.15,2013-04-27 03:05:00,
2013-04-26 23:10:00,54.5,51.3,30.32,ENE,65,0.0,0.0,89,0.00,,,0.00,Wunderground v.1.15,2013-04-27 03:10:00,
2013-04-26 23:20:00,54.3,51.4,30.32,ENE,65,0.0,0.0,90,0.00,,,0.00,Wunderground v.1.15,2013-04-27 03:20:00,
2013-04-26 23:25:00,54.1,51.2,30.32,ENE,65,0.0,0.0,90,0.00,,,0.00,Wunderground v.1.15,2013-04-27 03:25:00,
2013-04-26 23:35:00,53.9,51.0,30.31,ENE,65,0.0,0.0,90,0.00,,,0.00,Wunderground v.1.15,2013-04-27 03:35:00,
2013-04-26 23:40:00,53.8,51.2,30.31,ENE,65,0.0,0.0,91,0.00,,,0.00,Wunderground v.1.15,2013-04-27 03:40:00,
2013-04-26 23:50:00,53.7,51.1,30.31,ENE,65,0.0,0.0,91,0.00,,,0.00,Wunderground v.1.15,2013-04-27 03:50:00,
2013-04-26 23:55:00,53.6,51.0,30.31,ENE,65,0.0,0.0,91,0.00,,,0.00,Wunderground v.1.15,2013-04-27 03:55:00,